Location: Paddlesworth
(51.1000°N, 1.1333°E)
Time: 16:49:26
(UTC+00:00)

Cosmos 1500 - Pass Details

Date: 11 May 2021
Orbit: 497 x 518 km, 82.5° (Epoch: 21 June)

Event Time Altitude Azimuth Distance (km) Brightness Sun altitude
Rises 21:22:14 0° 343° (NNW) 2,617 8.3 -13.4°
Reaches altitude 10° 21:24:28 10° 335° (NNW) 1,724 7.2 -13.6°
Maximum altitude 21:27:58 37° 267° (W) 799 4.4 -13.9°
Enters shadow 21:31:16 11° 200° (SSW) 1,647 5.4 -14.2°
